TERRA

Last updated on Sat Jul 18 2026 00:02:12 GMT+0000 (Coordinated Universal Time)

1 25994U 99068A 26198.70576780 .00000157 00000+0 40985-4 0 9999 2 25994 97.9440 247.0394 0003505 117.7508 347.4287 14.61124752414068
UTC large
Height (km)
Speed (km/s)
/
Latitude / Longitude
Inclination (degrees)
Orbital Period (minutes)
Azimuth
Elevation
Range (km)
Doppler Factor

Next 0 passes for location: London (51.5072 / 0.1276)

No passes found over London.
TERRA